TimeCST,TemperatureF,Dew PointF,Humidity,Sea Level PressureIn,VisibilityMPH,Wind Direction,Wind SpeedMPH,Gust SpeedMPH,PrecipitationIn,Events,Conditions,WindDirDegrees,DateUTC
12:15 AM,24.8,19.0,79,30.17,10.0,NW,11.5,-,N/A,,Clear,310,2013-03-01 06:15:00
12:35 AM,24.6,18.5,78,30.19,10.0,NW,10.4,-,N/A,,Scattered Clouds,310,2013-03-01 06:35:00
1:15 AM,25.5,19.2,77,30.21,10.0,NW,9.2,-,N/A,,Overcast,320,2013-03-01 07:15:00
1:35 AM,25.0,18.5,76,30.21,10.0,NNW,5.8,-,N/A,,Mostly Cloudy,340,2013-03-01 07:35:00
1:55 AM,25.3,19.0,77,30.22,10.0,NW,8.1,-,N/A,,Overcast,310,2013-03-01 07:55:00
2:35 AM,26.4,19.4,75,30.21,10.0,NW,8.1,-,N/A,,Overcast,310,2013-03-01 08:35:00
2:55 AM,25.3,18.1,74,30.21,10.0,NW,8.1,-,N/A,,Mostly Cloudy,310,2013-03-01 08:55:00
3:35 AM,24.6,17.6,75,30.20,10.0,WNW,12.7,-,N/A,,Mostly Cloudy,300,2013-03-01 09:35:00
3:55 AM,23.0,16.7,77,30.19,10.0,WNW,10.4,-,N/A,,Scattered Clouds,300,2013-03-01 09:55:00
4:15 AM,21.6,16.0,79,30.19,10.0,WNW,11.5,-,N/A,,Clear,290,2013-03-01 10:15:00
4:35 AM,22.1,15.4,76,30.20,10.0,West,11.5,-,N/A,,Clear,280,2013-03-01 10:35:00
4:55 AM,20.8,14.9,78,30.20,10.0,West,13.8,-,N/A,,Clear,270,2013-03-01 10:55:00
5:15 AM,20.3,14.7,79,30.20,10.0,West,13.8,-,N/A,,Clear,280,2013-03-01 11:15:00
5:35 AM,21.0,14.7,77,30.21,10.0,WNW,12.7,-,N/A,,Clear,290,2013-03-01 11:35:00
6:15 AM,20.5,14.4,77,30.22,10.0,West,11.5,-,N/A,,Clear,280,2013-03-01 12:15:00
6:35 AM,19.6,13.5,77,30.21,10.0,West,12.7,-,N/A,,Clear,280,2013-03-01 12:35:00
6:55 AM,20.3,13.8,76,30.21,10.0,West,12.7,-,N/A,,Clear,280,2013-03-01 12:55:00
7:15 AM,19.6,13.6,78,30.20,10.0,WNW,8.1,-,N/A,,Clear,290,2013-03-01 13:15:00
7:35 AM,20.1,14.4,78,30.21,10.0,WNW,12.7,-,N/A,,Clear,290,2013-03-01 13:35:00
7:55 AM,22.8,15.8,74,30.22,10.0,WNW,12.7,-,N/A,,Clear,300,2013-03-01 13:55:00
8:15 AM,23.7,16.7,75,30.23,10.0,WNW,12.7,-,N/A,,Clear,300,2013-03-01 14:15:00
8:35 AM,25.5,17.8,72,30.24,10.0,WNW,12.7,-,N/A,,Clear,300,2013-03-01 14:35:00
9:15 AM,30.7,19.8,64,30.25,10.0,WNW,13.8,-,N/A,,Clear,300,2013-03-01 15:15:00
9:35 AM,31.8,21.0,64,30.25,10.0,WNW,16.1,-,N/A,,Scattered Clouds,300,2013-03-01 15:35:00
9:55 AM,32.9,20.8,61,30.25,10.0,WNW,15.0,-,N/A,,Scattered Clouds,300,2013-03-01 15:55:00
10:15 AM,33.6,21.9,62,30.25,10.0,WNW,13.8,-,N/A,,Mostly Cloudy,300,2013-03-01 16:15:00
10:35 AM,34.3,22.5,62,30.25,10.0,WNW,13.8,-,N/A,,Overcast,300,2013-03-01 16:35:00
10:55 AM,36.0,21.6,56,30.25,10.0,NW,16.1,19.6,N/A,,Overcast,310,2013-03-01 16:55:00
11:15 AM,36.7,21.9,55,30.25,10.0,NW,15.0,-,N/A,,Overcast,310,2013-03-01 17:15:00
11:35 AM,37.4,20.3,50,30.25,10.0,NW,16.1,-,N/A,,Overcast,310,2013-03-01 17:35:00
12:15 PM,38.7,21.2,50,30.25,10.0,NW,17.3,23.0,N/A,,Overcast,310,2013-03-01 18:15:00
12:35 PM,39.9,21.7,48,30.25,10.0,NW,12.7,19.6,N/A,,Scattered Clouds,310,2013-03-01 18:35:00
12:55 PM,39.4,21.0,48,30.24,10.0,NW,15.0,20.7,N/A,,Mostly Cloudy,320,2013-03-01 18:55:00
1:15 PM,40.6,21.9,47,30.24,10.0,NNW,13.8,-,N/A,,Mostly Cloudy,330,2013-03-01 19:15:00
1:35 PM,41.0,22.3,47,30.23,10.0,NNW,18.4,25.3,N/A,,Scattered Clouds,330,2013-03-01 19:35:00
1:55 PM,40.8,21.9,47,30.22,10.0,NNW,17.3,-,N/A,,Clear,330,2013-03-01 19:55:00
2:15 PM,41.2,22.3,47,30.21,10.0,NNW,15.0,26.5,N/A,,Clear,330,2013-03-01 20:15:00
2:35 PM,41.5,22.3,46,30.21,10.0,NNW,19.6,27.6,N/A,,Scattered Clouds,340,2013-03-01 20:35:00
2:55 PM,41.7,21.6,45,30.21,10.0,NNW,17.3,31.1,N/A,,Overcast,330,2013-03-01 20:55:00
3:15 PM,40.8,21.6,46,30.20,10.0,NNW,17.3,23.0,N/A,,Overcast,340,2013-03-01 21:15:00
3:35 PM,40.8,21.9,47,30.20,10.0,NNW,15.0,-,N/A,,Overcast,340,2013-03-01 21:35:00
3:55 PM,41.5,21.2,44,30.21,10.0,NNW,16.1,-,N/A,,Overcast,330,2013-03-01 21:55:00
4:15 PM,41.9,22.1,45,30.21,10.0,North,13.8,21.9,N/A,,Mostly Cloudy,350,2013-03-01 22:15:00
4:35 PM,40.3,21.6,47,30.22,10.0,NNW,12.7,19.6,N/A,,Overcast,340,2013-03-01 22:35:00
5:15 PM,40.1,23.0,51,30.23,10.0,NNW,9.2,-,N/A,,Overcast,330,2013-03-01 23:15:00
5:35 PM,39.4,24.3,55,30.23,10.0,NW,6.9,-,N/A,,Overcast,320,2013-03-01 23:35:00
5:55 PM,39.2,25.0,57,30.23,10.0,NW,4.6,-,N/A,,Overcast,320,2013-03-01 23:55:00
6:15 PM,37.8,26.8,65,30.23,10.0,NW,5.8,-,N/A,,Overcast,310,2013-03-02 00:15:00
6:35 PM,37.4,26.2,64,30.24,10.0,WNW,11.5,-,N/A,,Overcast,300,2013-03-02 00:35:00
6:55 PM,36.7,27.7,70,30.24,10.0,WNW,10.4,-,N/A,,Overcast,290,2013-03-02 00:55:00
7:15 PM,36.5,27.1,69,30.24,10.0,NW,5.8,-,N/A,,Overcast,310,2013-03-02 01:15:00
7:35 PM,36.1,26.6,68,30.24,10.0,West,8.1,-,N/A,,Overcast,280,2013-03-02 01:35:00
7:55 PM,37.4,25.9,63,30.24,10.0,WNW,6.9,-,N/A,,Overcast,300,2013-03-02 01:55:00
8:15 PM,36.1,27.0,69,30.25,10.0,WNW,4.6,-,N/A,,Overcast,300,2013-03-02 02:15:00
8:35 PM,36.5,26.4,67,30.25,10.0,WNW,6.9,-,N/A,,Overcast,290,2013-03-02 02:35:00
8:55 PM,36.1,27.5,71,30.25,10.0,West,9.2,-,N/A,,Overcast,270,2013-03-02 02:55:00
9:15 PM,36.5,27.9,71,30.24,10.0,West,8.1,-,N/A,,Overcast,280,2013-03-02 03:15:00
9:35 PM,36.5,27.9,71,30.24,10.0,West,8.1,-,N/A,,Overcast,280,2013-03-02 03:35:00
9:55 PM,36.7,27.5,69,30.24,10.0,West,8.1,-,N/A,,Overcast,280,2013-03-02 03:55:00
10:15 PM,36.7,27.5,69,30.25,10.0,West,9.2,-,N/A,,Overcast,280,2013-03-02 04:15:00
10:35 PM,36.1,28.0,72,30.24,10.0,West,5.8,-,N/A,,Overcast,270,2013-03-02 04:35:00
10:55 PM,36.0,28.8,75,30.24,10.0,West,8.1,-,N/A,,Overcast,270,2013-03-02 04:55:00
11:15 PM,37.4,29.3,73,30.24,10.0,West,9.2,-,N/A,,Overcast,280,2013-03-02 05:15:00
11:35 PM,38.5,30.9,74,30.23,10.0,WNW,12.7,-,N/A,,Overcast,290,2013-03-02 05:35:00
11:55 PM,38.5,31.8,77,30.23,10.0,WNW,13.8,-,N/A,,Overcast,290,2013-03-02 05:55:00